Time,TemperatureF,DewpointF,PressureIn,WindDirection,WindDirectionDegrees,WindSpeedMPH,WindSpeedGustMPH,Humidity,HourlyPrecipIn,Conditions,Clouds,dailyrainin,SoftwareType,DateUTC
2013-01-09 00:00:00,35.1,6.8,29.54,North,0,0.0,0.0,30,0.00,,,0.00,WUHU216HW,2013-01-09 05:00:00,
2013-01-09 00:01:00,35.3,4.3,29.54,North,0,0.0,0.0,27,0.00,,,0.00,WUHU216HW,2013-01-09 05:01:00,
2013-01-09 00:02:00,35.3,4.3,29.54,North,0,0.0,0.0,27,0.00,,,0.00,WUHU216HW,2013-01-09 05:02:00,
2013-01-09 00:07:00,35.6,2.0,29.54,North,0,0.0,0.0,24,0.00,,,0.00,WUHU216HW,2013-01-09 05:07:00,
2013-01-09 00:12:00,35.6,2.9,29.54,North,0,0.0,0.0,25,0.00,,,0.00,WUHU216HW,2013-01-09 05:12:00,
2013-01-09 00:17:00,36.0,6.7,29.54,North,0,0.0,0.0,29,0.00,,,0.00,WUHU216HW,2013-01-09 05:17:00,
2013-01-09 00:22:00,36.4,5.2,29.54,North,0,0.0,0.0,27,0.00,,,0.00,WUHU216HW,2013-01-09 05:22:00,
2013-01-09 00:27:00,36.5,4.5,29.54,North,0,0.0,0.0,26,0.00,,,0.00,WUHU216HW,2013-01-09 05:27:00,
2013-01-09 00:32:00,37.1,5.9,29.54,North,0,0.0,0.0,27,0.00,,,0.00,WUHU216HW,2013-01-09 05:32:00,
2013-01-09 00:37:00,37.6,9.0,29.53,North,0,0.0,0.0,30,0.00,,,0.00,WUHU216HW,2013-01-09 05:37:00,
2013-01-09 00:42:00,38.0,10.6,29.53,North,0,0.0,0.0,32,0.00,,,0.00,WUHU216HW,2013-01-09 05:42:00,
2013-01-09 00:47:00,38.3,12.9,29.53,North,0,0.0,0.0,35,0.00,,,0.00,WUHU216HW,2013-01-09 05:47:00,
2013-01-09 00:52:00,38.7,13.9,29.53,North,0,0.0,0.0,36,0.00,,,0.00,WUHU216HW,2013-01-09 05:52:00,
2013-01-09 00:57:00,38.9,15.3,29.52,North,0,0.0,0.0,38,0.00,,,0.00,WUHU216HW,2013-01-09 05:57:00,
2013-01-09 01:02:00,39.2,16.3,29.52,North,0,0.0,0.0,39,0.00,,,0.00,WUHU216HW,2013-01-09 06:02:00,
2013-01-09 01:07:00,39.2,16.9,29.52,North,0,0.0,0.0,40,0.00,,,0.00,WUHU216HW,2013-01-09 06:07:00,
2013-01-09 01:13:00,39.8,18.5,29.52,North,0,0.0,0.0,42,0.00,,,0.00,WUHU216HW,2013-01-09 06:13:00,
2013-01-09 01:18:00,40.0,19.6,29.51,North,0,0.0,0.0,44,0.00,,,0.00,WUHU216HW,2013-01-09 06:18:00,
2013-01-09 01:23:00,40.1,19.8,29.51,North,0,0.0,0.0,44,0.00,,,0.00,WUHU216HW,2013-01-09 06:23:00,
2013-01-09 01:28:00,40.3,20.5,29.51,North,0,0.0,0.0,45,0.00,,,0.00,WUHU216HW,2013-01-09 06:28:00,
2013-01-09 01:33:00,40.3,20.5,29.52,North,0,0.0,0.0,45,0.00,,,0.00,WUHU216HW,2013-01-09 06:33:00,
2013-01-09 01:38:00,40.3,20.0,29.51,North,0,0.0,0.0,44,0.00,,,0.00,WUHU216HW,2013-01-09 06:38:00,
2013-01-09 01:43:00,40.5,20.7,29.52,North,0,0.0,0.0,45,0.00,,,0.00,WUHU216HW,2013-01-09 06:43:00,
2013-01-09 01:48:00,40.7,20.8,29.52,North,0,0.0,0.0,45,0.00,,,0.00,WUHU216HW,2013-01-09 06:48:00,
2013-01-09 01:53:00,40.9,21.5,29.52,North,0,0.0,0.0,46,0.00,,,0.00,WUHU216HW,2013-01-09 06:53:00,
2013-01-09 01:58:00,40.9,21.5,29.51,North,0,0.0,0.0,46,0.00,,,0.00,WUHU216HW,2013-01-09 06:58:00,
2013-01-09 02:03:00,40.9,21.5,29.52,North,0,0.0,0.0,46,0.00,,,0.00,WUHU216HW,2013-01-09 07:03:00,
2013-01-09 02:08:00,40.9,21.5,29.52,North,0,0.0,0.0,46,0.00,,,0.00,WUHU216HW,2013-01-09 07:08:00,
2013-01-09 02:13:00,41.0,21.7,29.52,North,0,0.0,0.0,46,0.00,,,0.00,WUHU216HW,2013-01-09 07:13:00,
2013-01-09 02:18:00,41.0,21.7,29.51,North,0,0.0,0.0,46,0.00,,,0.00,WUHU216HW,2013-01-09 07:18:00,
2013-01-09 02:23:00,41.0,21.7,29.52,North,0,0.0,0.0,46,0.00,,,0.00,WUHU216HW,2013-01-09 07:23:00,
2013-01-09 02:28:00,41.0,21.7,29.52,North,0,0.0,0.0,46,0.00,,,0.00,WUHU216HW,2013-01-09 07:28:00,
2013-01-09 02:33:00,40.9,21.5,29.52,North,0,0.0,0.0,46,0.00,,,0.00,WUHU216HW,2013-01-09 07:33:00,
2013-01-09 02:38:00,40.9,21.0,29.52,North,0,0.0,0.0,45,0.00,,,0.00,WUHU216HW,2013-01-09 07:38:00,
2013-01-09 02:44:00,40.9,21.0,29.52,North,0,0.0,0.0,45,0.00,,,0.00,WUHU216HW,2013-01-09 07:44:00,
2013-01-09 02:49:00,40.9,21.0,29.52,North,0,0.0,0.0,45,0.00,,,0.00,WUHU216HW,2013-01-09 07:49:00,
2013-01-09 02:54:00,41.0,21.7,29.52,North,0,0.0,0.0,46,0.00,,,0.00,WUHU216HW,2013-01-09 07:54:00,
2013-01-09 02:59:00,41.0,21.7,29.52,North,0,0.0,0.0,46,0.00,,,0.00,WUHU216HW,2013-01-09 07:59:00,
2013-01-09 03:04:00,40.9,21.0,29.52,North,0,0.0,0.0,45,0.00,,,0.00,WUHU216HW,2013-01-09 08:04:00,
2013-01-09 03:09:00,40.9,20.4,29.53,North,0,0.0,0.0,44,0.00,,,0.00,WUHU216HW,2013-01-09 08:09:00,
2013-01-09 03:14:00,40.9,20.4,29.52,North,0,0.0,0.0,44,0.00,,,0.00,WUHU216HW,2013-01-09 08:14:00,
2013-01-09 03:19:00,41.0,20.6,29.53,North,0,0.0,0.0,44,0.00,,,0.00,WUHU216HW,2013-01-09 08:19:00,
2013-01-09 03:24:00,41.0,21.2,29.52,North,0,0.0,0.0,45,0.00,,,0.00,WUHU216HW,2013-01-09 08:24:00,
2013-01-09 03:29:00,41.2,21.3,29.53,North,0,0.0,0.0,45,0.00,,,0.00,WUHU216HW,2013-01-09 08:29:00,
2013-01-09 03:34:00,41.2,21.3,29.52,North,0,0.0,0.0,45,0.00,,,0.00,WUHU216HW,2013-01-09 08:34:00,
2013-01-09 03:39:00,41.2,21.3,29.53,North,0,0.0,0.0,45,0.00,,,0.00,WUHU216HW,2013-01-09 08:39:00,
2013-01-09 03:44:00,41.4,21.5,29.53,North,0,0.0,0.0,45,0.00,,,0.00,WUHU216HW,2013-01-09 08:44:00,
2013-01-09 03:49:00,41.6,21.7,29.53,North,0,0.0,0.0,45,0.00,,,0.00,WUHU216HW,2013-01-09 08:49:00,
2013-01-09 03:54:00,41.8,21.9,29.53,North,0,0.0,0.0,45,0.00,,,0.00,WUHU216HW,2013-01-09 08:54:00,
2013-01-09 04:00:00,41.9,22.5,29.53,North,0,0.0,0.0,46,0.00,,,0.00,WUHU216HW,2013-01-09 09:00:00,
2013-01-09 04:05:00,42.3,23.9,29.53,North,0,0.0,0.0,48,0.00,,,0.00,WUHU216HW,2013-01-09 09:05:00,
2013-01-09 04:10:00,42.5,24.1,29.53,North,0,0.0,0.0,48,0.00,,,0.00,WUHU216HW,2013-01-09 09:10:00,
2013-01-09 04:15:00,42.5,24.1,29.53,North,0,0.0,0.0,48,0.00,,,0.00,WUHU216HW,2013-01-09 09:15:00,
2013-01-09 04:20:00,42.8,24.5,29.53,North,0,0.0,0.0,48,0.00,,,0.00,WUHU216HW,2013-01-09 09:20:00,
2013-01-09 04:25:00,42.8,25.0,29.53,North,0,0.0,0.0,49,0.00,,,0.00,WUHU216HW,2013-01-09 09:25:00,
2013-01-09 04:30:00,42.8,25.0,29.52,North,0,0.0,0.0,49,0.00,,,0.00,WUHU216HW,2013-01-09 09:30:00,
2013-01-09 04:35:00,42.8,25.0,29.53,North,0,0.0,0.0,49,0.00,,,0.00,WUHU216HW,2013-01-09 09:35:00,
2013-01-09 04:40:00,42.8,24.5,29.52,North,0,0.0,0.0,48,0.00,,,0.00,WUHU216HW,2013-01-09 09:40:00,
2013-01-09 04:45:00,42.8,23.9,29.52,North,0,0.0,0.0,47,0.00,,,0.00,WUHU216HW,2013-01-09 09:45:00,
2013-01-09 04:50:00,42.8,23.4,29.52,North,0,0.0,0.0,46,0.00,,,0.00,WUHU216HW,2013-01-09 09:50:00,
2013-01-09 04:55:00,42.8,23.4,29.52,North,0,0.0,0.0,46,0.00,,,0.00,WUHU216HW,2013-01-09 09:55:00,
2013-01-09 05:00:00,43.2,24.3,29.53,North,0,0.0,0.0,47,0.00,,,0.00,WUHU216HW,2013-01-09 10:00:00,
2013-01-09 05:06:00,43.4,24.4,29.53,North,0,0.0,0.0,47,0.00,,,0.00,WUHU216HW,2013-01-09 10:06:00,
2013-01-09 05:11:00,43.6,24.6,29.53,North,0,0.0,0.0,47,0.00,,,0.00,WUHU216HW,2013-01-09 10:11:00,
2013-01-09 05:16:00,43.7,24.2,29.54,North,0,0.0,0.0,46,0.00,,,0.00,WUHU216HW,2013-01-09 10:16:00,
2013-01-09 05:21:00,43.7,24.8,29.55,North,0,0.0,0.0,47,0.00,,,0.00,WUHU216HW,2013-01-09 10:21:00,
2013-01-09 05:26:00,43.9,24.9,29.55,North,0,0.0,0.0,47,0.00,,,0.00,WUHU216HW,2013-01-09 10:26:00,
2013-01-09 05:31:00,43.9,25.5,29.55,North,0,0.0,0.0,48,0.00,,,0.00,WUHU216HW,2013-01-09 10:31:00,
2013-01-09 05:36:00,44.1,25.7,29.54,North,0,0.0,0.0,48,0.00,,,0.00,WUHU216HW,2013-01-09 10:36:00,
2013-01-09 05:41:00,44.1,25.1,29.54,North,0,0.0,0.0,47,0.00,,,0.00,WUHU216HW,2013-01-09 10:41:00,
2013-01-09 05:47:00,44.1,23.5,29.54,North,0,0.0,0.0,44,0.00,,,0.00,WUHU216HW,2013-01-09 10:47:00,
2013-01-09 05:52:00,43.9,18.5,29.55,North,0,0.0,0.0,36,0.00,,,0.00,WUHU216HW,2013-01-09 10:52:00,
2013-01-09 05:57:00,43.6,13.2,29.56,North,0,0.0,0.0,29,0.00,,,0.00,WUHU216HW,2013-01-09 10:57:00,
2013-01-09 06:02:00,43.6,-9.7,29.57,North,0,0.0,0.0,10,0.01,,,0.00,WUHU216HW,2013-01-09 11:02:00,
2013-01-09 06:07:00,43.2,-9.8,29.57,North,0,0.0,0.0,5,0.01,,,0.02,WUHU216HW,2013-01-09 11:07:00,
2013-01-09 06:12:00,43.0,-9.9,29.56,North,0,0.0,0.0,1,0.02,,,0.03,WUHU216HW,2013-01-09 11:12:00,
2013-01-09 06:17:00,42.8,-10.1,29.57,North,0,0.0,0.0,1,0.04,,,0.04,WUHU216HW,2013-01-09 11:17:00,
2013-01-09 06:22:00,42.5,-10.3,29.57,North,0,0.0,0.0,1,0.04,,,0.05,WUHU216HW,2013-01-09 11:22:00,
2013-01-09 06:28:00,42.3,-10.4,29.57,North,0,0.0,0.0,1,0.05,,,0.06,WUHU216HW,2013-01-09 11:28:00,
2013-01-09 06:33:00,42.3,-10.4,29.56,North,0,0.0,0.0,1,0.06,,,0.07,WUHU216HW,2013-01-09 11:33:00,
2013-01-09 06:38:00,42.1,-10.6,29.56,North,0,0.0,0.0,1,0.06,,,0.07,WUHU216HW,2013-01-09 11:38:00,
2013-01-09 06:43:00,41.9,-10.7,29.55,North,0,0.0,0.0,1,0.07,,,0.08,WUHU216HW,2013-01-09 11:43:00,
2013-01-09 06:48:00,41.8,-10.8,29.55,North,0,0.0,0.0,1,0.07,,,0.08,WUHU216HW,2013-01-09 11:48:00,
2013-01-09 06:53:00,41.8,-10.8,29.56,North,0,0.0,0.0,1,0.07,,,0.08,WUHU216HW,2013-01-09 11:53:00,
2013-01-09 06:58:00,41.8,-10.8,29.57,North,0,0.0,0.0,1,0.07,,,0.08,WUHU216HW,2013-01-09 11:58:00,
2013-01-09 07:03:00,41.8,-10.8,29.57,North,0,0.0,0.0,1,0.06,,,0.08,WUHU216HW,2013-01-09 12:03:00,
2013-01-09 07:08:00,41.8,-10.8,29.58,North,0,0.0,0.0,1,0.06,,,0.08,WUHU216HW,2013-01-09 12:08:00,
2013-01-09 07:13:00,41.6,-11.0,29.58,North,0,0.0,0.0,1,0.04,,,0.08,WUHU216HW,2013-01-09 12:13:00,
2013-01-09 07:18:00,41.4,-11.1,29.58,North,0,0.0,0.0,1,0.03,,,0.08,WUHU216HW,2013-01-09 12:18:00,
2013-01-09 07:23:00,41.4,-11.1,29.58,North,0,0.0,0.0,1,0.02,,,0.08,WUHU216HW,2013-01-09 12:23:00,
2013-01-09 07:28:00,41.4,-11.1,29.59,North,0,0.0,0.0,1,0.02,,,0.08,WUHU216HW,2013-01-09 12:28:00,
2013-01-09 07:33:00,41.4,-11.1,29.59,North,0,0.0,0.0,1,0.01,,,0.08,WUHU216HW,2013-01-09 12:33:00,
2013-01-09 07:39:00,41.4,-11.1,29.59,North,0,0.0,0.0,1,0.00,,,0.08,WUHU216HW,2013-01-09 12:39:00,
2013-01-09 07:44:00,41.4,-11.1,29.59,North,0,0.0,0.0,1,0.00,,,0.08,WUHU216HW,2013-01-09 12:44:00,
2013-01-09 07:49:00,41.4,-11.1,29.60,North,0,0.0,0.0,1,0.00,,,0.08,WUHU216HW,2013-01-09 12:49:00,
2013-01-09 07:54:00,41.2,-11.2,29.59,North,0,0.0,0.0,1,0.00,,,0.08,WUHU216HW,2013-01-09 12:54:00,
2013-01-09 07:59:00,41.2,-11.2,29.60,North,0,0.0,0.0,1,0.00,,,0.08,WUHU216HW,2013-01-09 12:59:00,
2013-01-09 08:04:00,41.2,-11.2,29.60,North,0,0.0,0.0,1,0.00,,,0.08,WUHU216HW,2013-01-09 13:04:00,
2013-01-09 08:09:00,40.9,-11.5,29.60,North,0,0.0,0.0,1,0.00,,,0.08,WUHU216HW,2013-01-09 13:09:00,
2013-01-09 08:14:00,40.9,-11.5,29.61,North,0,0.0,0.0,1,0.00,,,0.08,WUHU216HW,2013-01-09 13:14:00,
2013-01-09 08:19:00,40.9,-11.5,29.61,North,0,0.0,0.0,1,0.00,,,0.08,WUHU216HW,2013-01-09 13:19:00,
2013-01-09 08:24:00,40.9,-11.5,29.61,North,0,0.0,0.0,1,0.00,,,0.08,WUHU216HW,2013-01-09 13:24:00,
2013-01-09 08:29:00,41.0,-11.3,29.62,North,0,0.0,0.0,1,0.00,,,0.08,WUHU216HW,2013-01-09 13:29:00,
2013-01-09 08:34:00,40.9,-11.5,29.62,North,0,0.0,0.0,1,0.00,,,0.08,WUHU216HW,2013-01-09 13:34:00,
2013-01-09 08:39:00,40.9,-11.5,29.63,North,0,0.0,0.0,1,0.00,,,0.08,WUHU216HW,2013-01-09 13:39:00,
2013-01-09 08:44:00,40.9,-11.5,29.63,North,0,0.0,0.0,1,0.00,,,0.08,WUHU216HW,2013-01-09 13:44:00,
2013-01-09 08:49:00,40.7,-11.6,29.63,North,0,0.0,0.0,1,0.00,,,0.08,WUHU216HW,2013-01-09 13:49:00,
2013-01-09 08:54:00,40.7,-11.6,29.63,North,0,0.0,0.0,1,0.00,,,0.08,WUHU216HW,2013-01-09 13:54:00,
2013-01-09 08:59:00,40.5,-11.8,29.64,North,0,0.0,0.0,1,0.00,,,0.08,WUHU216HW,2013-01-09 13:59:00,
2013-01-09 09:04:00,40.7,-11.6,29.64,North,0,0.0,0.0,1,0.00,,,0.08,WUHU216HW,2013-01-09 14:04:00,
2013-01-09 09:10:00,40.7,-11.6,29.64,North,0,0.0,0.0,1,0.00,,,0.08,WUHU216HW,2013-01-09 14:10:00,
2013-01-09 09:15:00,41.2,-11.2,29.64,North,0,0.0,0.0,1,0.00,,,0.08,WUHU216HW,2013-01-09 14:15:00,
2013-01-09 09:19:00,41.9,-10.7,29.65,North,0,0.0,0.0,1,0.00,,,0.08,WUHU216HW,2013-01-09 14:19:00,
2013-01-09 09:25:00,42.5,-10.3,29.65,North,0,0.0,0.0,1,0.00,,,0.08,WUHU216HW,2013-01-09 14:25:00,
2013-01-09 09:30:00,42.8,-10.1,29.66,North,0,0.0,0.0,1,0.00,,,0.08,WUHU216HW,2013-01-09 14:30:00,
2013-01-09 09:35:00,43.0,-9.9,29.66,North,0,0.0,0.0,1,0.00,,,0.08,WUHU216HW,2013-01-09 14:35:00,
2013-01-09 09:40:00,43.9,-9.2,29.66,North,0,0.0,0.0,1,0.00,,,0.08,WUHU216HW,2013-01-09 14:40:00,
2013-01-09 09:45:00,44.5,-8.8,29.66,North,0,0.0,0.0,1,0.00,,,0.08,WUHU216HW,2013-01-09 14:45:00,
2013-01-09 09:50:00,44.8,-8.4,29.66,North,0,0.0,0.0,1,0.00,,,0.08,WUHU216HW,2013-01-09 14:50:00,
2013-01-09 09:55:00,45.0,-8.4,29.66,North,0,0.0,0.0,1,0.00,,,0.08,WUHU216HW,2013-01-09 14:55:00,
2013-01-09 10:00:00,45.5,-7.9,29.67,North,0,0.0,0.0,1,0.00,,,0.08,WUHU216HW,2013-01-09 15:00:00,
2013-01-09 10:05:00,45.9,-7.6,29.67,North,0,0.0,0.0,1,0.00,,,0.08,WUHU216HW,2013-01-09 15:05:00,
2013-01-09 10:10:00,46.4,-7.2,29.67,North,0,0.0,0.0,1,0.00,,,0.08,WUHU216HW,2013-01-09 15:10:00,
2013-01-09 10:15:00,46.4,-7.2,29.67,North,0,0.0,0.0,2,0.00,,,0.08,WUHU216HW,2013-01-09 15:15:00,
2013-01-09 10:20:00,47.0,-6.7,29.67,North,0,0.0,0.0,3,0.00,,,0.08,WUHU216HW,2013-01-09 15:20:00,
2013-01-09 10:25:00,47.3,-6.5,29.68,North,0,0.0,0.0,3,0.00,,,0.08,WUHU216HW,2013-01-09 15:25:00,
2013-01-09 10:30:00,47.5,8.3,29.67,North,0,0.0,0.0,20,0.00,,,0.08,WUHU216HW,2013-01-09 15:30:00,
2013-01-09 10:35:00,47.2,3.7,29.68,North,0,0.0,0.0,17,0.00,,,0.08,WUHU216HW,2013-01-09 15:35:00,
2013-01-09 10:40:00,47.9,-3.0,29.68,North,0,0.0,0.0,12,0.00,,,0.08,WUHU216HW,2013-01-09 15:40:00,
2013-01-09 10:45:00,47.9,5.8,29.68,North,0,0.0,0.0,18,0.00,,,0.08,WUHU216HW,2013-01-09 15:45:00,
2013-01-09 10:50:00,48.2,6.0,29.68,North,0,0.0,0.0,18,0.00,,,0.08,WUHU216HW,2013-01-09 15:50:00,
2013-01-09 10:55:00,48.8,20.2,29.68,North,0,0.0,0.0,32,0.00,,,0.08,WUHU216HW,2013-01-09 15:55:00,
2013-01-09 11:00:00,49.0,20.3,29.68,North,0,0.0,0.0,32,0.00,,,0.08,WUHU216HW,2013-01-09 16:00:00,
2013-01-09 11:05:00,49.3,19.3,29.68,North,0,0.0,0.0,30,0.00,,,0.08,WUHU216HW,2013-01-09 16:05:00,
2013-01-09 11:10:00,48.8,24.1,29.68,North,0,0.0,0.0,38,0.00,,,0.08,WUHU216HW,2013-01-09 16:10:00,
2013-01-09 11:16:00,48.2,22.3,29.69,North,0,0.0,0.0,36,0.00,,,0.08,WUHU216HW,2013-01-09 16:16:00,
2013-01-09 11:21:00,48.2,23.7,29.69,North,0,0.0,0.0,38,0.00,,,0.08,WUHU216HW,2013-01-09 16:21:00,
2013-01-09 11:26:00,48.8,23.5,29.69,North,0,0.0,0.0,37,0.00,,,0.08,WUHU216HW,2013-01-09 16:26:00,
2013-01-09 11:31:00,49.3,27.1,29.69,North,0,0.0,0.0,42,0.00,,,0.08,WUHU216HW,2013-01-09 16:31:00,
2013-01-09 11:36:00,48.6,26.5,29.69,North,0,0.0,0.0,42,0.00,,,0.08,WUHU216HW,2013-01-09 16:36:00,
2013-01-09 11:41:00,49.0,27.3,29.69,North,0,0.0,0.0,43,0.00,,,0.08,WUHU216HW,2013-01-09 16:41:00,
2013-01-09 11:46:00,49.3,27.6,29.69,North,0,0.0,0.0,43,0.00,,,0.08,WUHU216HW,2013-01-09 16:46:00,
2013-01-09 11:51:00,49.5,31.7,29.69,North,0,0.0,0.0,50,0.00,,,0.08,WUHU216HW,2013-01-09 16:51:00,
2013-01-09 11:56:00,49.5,28.9,29.69,North,0,0.0,0.0,45,0.00,,,0.08,WUHU216HW,2013-01-09 16:56:00,
2013-01-09 12:01:00,50.0,33.6,29.69,North,0,0.0,0.0,53,0.00,,,0.08,WUHU216HW,2013-01-09 17:01:00,
2013-01-09 12:06:00,50.2,33.8,29.69,North,0,0.0,0.0,53,0.00,,,0.08,WUHU216HW,2013-01-09 17:06:00,
2013-01-09 12:11:00,50.4,32.0,29.69,North,0,0.0,0.0,49,0.00,,,0.08,WUHU216HW,2013-01-09 17:11:00,
2013-01-09 12:16:00,50.4,34.4,29.68,North,0,0.0,0.0,54,0.00,,,0.08,WUHU216HW,2013-01-09 17:16:00,
2013-01-09 12:22:00,50.8,35.6,29.68,North,0,0.0,0.0,56,0.00,,,0.08,WUHU216HW,2013-01-09 17:22:00,
2013-01-09 12:27:00,50.6,34.9,29.68,North,0,0.0,0.0,55,0.00,,,0.08,WUHU216HW,2013-01-09 17:27:00,
2013-01-09 12:32:00,50.8,35.1,29.67,North,0,0.0,0.0,55,0.00,,,0.08,WUHU216HW,2013-01-09 17:32:00,
2013-01-09 12:37:00,50.8,35.6,29.67,North,0,0.0,0.0,56,0.00,,,0.08,WUHU216HW,2013-01-09 17:37:00,
2013-01-09 12:42:00,50.9,35.7,29.67,North,0,0.0,0.0,56,0.00,,,0.08,WUHU216HW,2013-01-09 17:42:00,
2013-01-09 12:47:00,50.8,36.0,29.67,North,0,0.0,0.0,57,0.00,,,0.08,WUHU216HW,2013-01-09 17:47:00,
2013-01-09 12:52:00,50.8,36.0,29.67,North,0,0.0,0.0,57,0.00,,,0.08,WUHU216HW,2013-01-09 17:52:00,
2013-01-09 12:58:00,50.8,35.1,29.66,North,0,0.0,0.0,55,0.00,,,0.08,WUHU216HW,2013-01-09 17:58:00,
2013-01-09 13:03:00,51.5,36.2,29.66,North,0,0.0,0.0,56,0.00,,,0.08,WUHU216HW,2013-01-09 18:03:00,
2013-01-09 13:08:00,52.9,37.1,29.66,North,0,0.0,0.0,55,0.00,,,0.08,WUHU216HW,2013-01-09 18:08:00,
2013-01-09 13:13:00,54.9,39.9,29.66,North,0,0.0,0.0,57,0.00,,,0.08,WUHU216HW,2013-01-09 18:13:00,
2013-01-09 13:18:00,54.5,38.6,29.67,North,0,0.0,0.0,55,0.00,,,0.08,WUHU216HW,2013-01-09 18:18:00,
2013-01-09 13:23:00,54.0,38.6,29.67,North,0,0.0,0.0,56,0.00,,,0.08,WUHU216HW,2013-01-09 18:23:00,
2013-01-09 13:28:00,53.6,38.3,29.67,North,0,0.0,0.0,56,0.00,,,0.08,WUHU216HW,2013-01-09 18:28:00,
2013-01-09 13:33:00,53.5,38.5,29.67,North,0,0.0,0.0,57,0.00,,,0.08,WUHU216HW,2013-01-09 18:33:00,
2013-01-09 13:39:00,53.3,37.9,29.67,North,0,0.0,0.0,56,0.00,,,0.08,WUHU216HW,2013-01-09 18:39:00,
2013-01-09 13:41:00,53.1,38.3,29.67,North,0,0.0,0.0,57,0.00,,,0.08,WUHU216HW,2013-01-09 18:41:00,
2013-01-09 13:42:00,53.3,37.9,29.67,North,0,0.0,0.0,56,0.00,,,0.08,WUHU216HW,2013-01-09 18:42:00,
2013-01-09 13:44:00,53.1,37.7,29.67,North,0,0.0,0.0,56,0.00,,,0.08,WUHU216HW,2013-01-09 18:44:00,
2013-01-09 13:45:00,52.9,37.6,29.67,North,0,0.0,0.0,56,0.00,,,0.08,WUHU216HW,2013-01-09 18:45:00,
2013-01-09 13:48:00,53.1,38.3,29.67,North,0,0.0,0.0,57,0.00,,,0.08,WUHU216HW,2013-01-09 18:48:00,
2013-01-09 13:49:00,53.1,38.3,29.67,North,0,0.0,0.0,57,0.00,,,0.08,WUHU216HW,2013-01-09 18:49:00,
2013-01-09 13:51:00,53.1,38.3,29.67,North,0,0.0,0.0,57,0.00,,,0.08,WUHU216HW,2013-01-09 18:51:00,
2013-01-09 13:56:00,53.6,39.3,29.67,North,0,0.0,0.0,58,0.00,,,0.08,WUHU216HW,2013-01-09 18:56:00,
2013-01-09 14:01:00,52.9,38.1,29.68,North,0,0.0,0.0,57,0.00,,,0.08,WUHU216HW,2013-01-09 19:01:00,
2013-01-09 14:06:00,52.6,37.7,29.68,North,0,0.0,0.0,57,0.00,,,0.08,WUHU216HW,2013-01-09 19:06:00,
2013-01-09 14:11:00,52.9,37.6,29.68,North,0,0.0,0.0,56,0.00,,,0.08,WUHU216HW,2013-01-09 19:11:00,
2013-01-09 14:16:00,52.4,37.1,29.68,North,0,0.0,0.0,56,0.00,,,0.08,WUHU216HW,2013-01-09 19:16:00,
2013-01-09 14:21:00,52.4,37.1,29.68,North,0,0.0,0.0,56,0.00,,,0.08,WUHU216HW,2013-01-09 19:21:00,
2013-01-09 14:26:00,51.8,37.0,29.68,North,0,0.0,0.0,57,0.00,,,0.08,WUHU216HW,2013-01-09 19:26:00,
2013-01-09 14:31:00,52.6,37.7,29.68,North,0,0.0,0.0,57,0.00,,,0.08,WUHU216HW,2013-01-09 19:31:00,
2013-01-09 14:36:00,52.9,37.1,29.68,North,0,0.0,0.0,55,0.00,,,0.08,WUHU216HW,2013-01-09 19:36:00,
2013-01-09 14:41:00,53.6,37.8,29.68,North,0,0.0,0.0,55,0.00,,,0.08,WUHU216HW,2013-01-09 19:41:00,
2013-01-09 14:46:00,53.6,36.4,29.69,North,0,0.0,0.0,52,0.00,,,0.08,WUHU216HW,2013-01-09 19:46:00,
2013-01-09 14:51:00,52.2,35.6,29.70,North,0,0.0,0.0,53,0.00,,,0.08,WUHU216HW,2013-01-09 19:51:00,
2013-01-09 14:56:00,52.2,35.1,29.70,North,0,0.0,0.0,52,0.00,,,0.08,WUHU216HW,2013-01-09 19:56:00,
2013-01-09 15:01:00,51.5,34.4,29.70,North,0,0.0,0.0,52,0.00,,,0.08,WUHU216HW,2013-01-09 20:01:00,
2013-01-09 15:06:00,51.1,35.0,29.70,North,0,0.0,0.0,54,0.00,,,0.08,WUHU216HW,2013-01-09 20:06:00,
2013-01-09 15:11:00,52.2,35.6,29.70,North,0,0.0,0.0,53,0.00,,,0.08,WUHU216HW,2013-01-09 20:11:00,
2013-01-09 15:17:00,52.2,35.6,29.71,North,0,0.0,0.0,53,0.00,,,0.08,WUHU216HW,2013-01-09 20:17:00,
2013-01-09 15:22:00,52.2,35.6,29.71,North,0,0.0,0.0,53,0.00,,,0.08,WUHU216HW,2013-01-09 20:22:00,
2013-01-09 15:27:00,52.4,35.3,29.71,North,0,0.0,0.0,52,0.00,,,0.08,WUHU216HW,2013-01-09 20:27:00,
2013-01-09 15:32:00,53.1,36.8,29.71,North,0,0.0,0.0,54,0.00,,,0.08,WUHU216HW,2013-01-09 20:32:00,
2013-01-09 15:37:00,52.9,35.7,29.72,North,0,0.0,0.0,52,0.00,,,0.08,WUHU216HW,2013-01-09 20:37:00,
2013-01-09 15:42:00,52.2,35.6,29.72,North,0,0.0,0.0,53,0.00,,,0.08,WUHU216HW,2013-01-09 20:42:00,
2013-01-09 15:47:00,51.3,35.2,29.72,North,0,0.0,0.0,54,0.00,,,0.08,WUHU216HW,2013-01-09 20:47:00,
2013-01-09 15:52:00,50.8,35.1,29.73,North,0,0.0,0.0,55,0.00,,,0.08,WUHU216HW,2013-01-09 20:52:00,
2013-01-09 15:57:00,50.2,35.1,29.73,North,0,0.0,0.0,56,0.00,,,0.08,WUHU216HW,2013-01-09 20:57:00,
2013-01-09 16:02:00,50.4,35.7,29.73,North,0,0.0,0.0,57,0.00,,,0.08,WUHU216HW,2013-01-09 21:02:00,
2013-01-09 16:07:00,50.4,35.3,29.73,North,0,0.0,0.0,56,0.00,,,0.08,WUHU216HW,2013-01-09 21:07:00,
2013-01-09 16:12:00,49.7,35.0,29.73,North,0,0.0,0.0,57,0.00,,,0.08,WUHU216HW,2013-01-09 21:12:00,
2013-01-09 16:17:00,49.0,34.8,29.73,North,0,0.0,0.0,58,0.00,,,0.08,WUHU216HW,2013-01-09 21:17:00,
2013-01-09 16:22:00,48.6,34.5,29.73,North,0,0.0,0.0,58,0.00,,,0.08,WUHU216HW,2013-01-09 21:22:00,
2013-01-09 16:27:00,48.2,34.7,29.74,North,0,0.0,0.0,59,0.00,,,0.08,WUHU216HW,2013-01-09 21:27:00,
2013-01-09 16:32:00,47.9,34.3,29.74,North,0,0.0,0.0,59,0.00,,,0.08,WUHU216HW,2013-01-09 21:32:00,
2013-01-09 16:37:00,47.9,34.7,29.74,North,0,0.0,0.0,60,0.00,,,0.08,WUHU216HW,2013-01-09 21:37:00,
2013-01-09 16:42:00,47.5,34.4,29.75,North,0,0.0,0.0,60,0.00,,,0.08,WUHU216HW,2013-01-09 21:42:00,
2013-01-09 16:47:00,47.2,34.0,29.75,North,0,0.0,0.0,60,0.00,,,0.08,WUHU216HW,2013-01-09 21:47:00,
2013-01-09 16:53:00,47.0,33.4,29.75,North,0,0.0,0.0,59,0.00,,,0.08,WUHU216HW,2013-01-09 21:53:00,
2013-01-09 16:58:00,46.4,32.9,29.76,North,0,0.0,0.0,59,0.00,,,0.08,WUHU216HW,2013-01-09 21:58:00,
2013-01-09 17:03:00,46.1,32.9,29.76,North,0,0.0,0.0,60,0.00,,,0.08,WUHU216HW,2013-01-09 22:03:00,
2013-01-09 17:08:00,45.7,32.7,29.75,North,0,0.0,0.0,60,0.00,,,0.08,WUHU216HW,2013-01-09 22:08:00,
2013-01-09 17:13:00,45.2,32.1,29.75,North,0,0.0,0.0,60,0.00,,,0.08,WUHU216HW,2013-01-09 22:13:00,
2013-01-09 17:18:00,44.8,31.4,29.75,North,0,0.0,0.0,59,0.00,,,0.08,WUHU216HW,2013-01-09 22:18:00,
2013-01-09 17:23:00,44.6,31.2,29.75,North,0,0.0,0.0,59,0.00,,,0.08,WUHU216HW,2013-01-09 22:23:00,
2013-01-09 17:28:00,44.5,31.1,29.76,North,0,0.0,0.0,59,0.00,,,0.08,WUHU216HW,2013-01-09 22:28:00,
2013-01-09 17:33:00,43.9,30.5,29.76,North,0,0.0,0.0,59,0.00,,,0.08,WUHU216HW,2013-01-09 22:33:00,
2013-01-09 17:38:00,43.6,30.2,29.76,North,0,0.0,0.0,59,0.00,,,0.08,WUHU216HW,2013-01-09 22:38:00,
2013-01-09 17:44:00,43.2,29.8,29.76,North,0,0.0,0.0,59,0.00,,,0.08,WUHU216HW,2013-01-09 22:44:00,
2013-01-09 17:49:00,42.7,29.3,29.76,North,0,0.0,0.0,59,0.00,,,0.08,WUHU216HW,2013-01-09 22:49:00,
2013-01-09 17:54:00,42.1,28.8,29.76,North,0,0.0,0.0,59,0.00,,,0.08,WUHU216HW,2013-01-09 22:54:00,
2013-01-09 17:59:00,41.8,28.4,29.76,North,0,0.0,0.0,59,0.00,,,0.08,WUHU216HW,2013-01-09 22:59:00,
2013-01-09 18:04:00,41.4,28.2,29.76,North,0,0.0,0.0,59,0.00,,,0.08,WUHU216HW,2013-01-09 23:04:00,
2013-01-09 18:09:00,41.0,27.8,29.76,North,0,0.0,0.0,59,0.00,,,0.08,WUHU216HW,2013-01-09 23:09:00,
2013-01-09 18:14:00,40.5,27.3,29.76,North,0,0.0,0.0,59,0.00,,,0.08,WUHU216HW,2013-01-09 23:14:00,
2013-01-09 18:19:00,40.0,26.3,29.76,North,0,0.0,0.0,58,0.00,,,0.08,WUHU216HW,2013-01-09 23:19:00,
2013-01-09 18:24:00,39.6,25.9,29.76,North,0,0.0,0.0,58,0.00,,,0.08,WUHU216HW,2013-01-09 23:24:00,
2013-01-09 18:30:00,39.2,25.6,29.77,North,0,0.0,0.0,58,0.00,,,0.08,WUHU216HW,2013-01-09 23:30:00,
2013-01-09 18:35:00,38.9,24.8,29.77,North,0,0.0,0.0,57,0.00,,,0.08,WUHU216HW,2013-01-09 23:35:00,
2013-01-09 18:40:00,38.5,24.5,29.77,North,0,0.0,0.0,57,0.00,,,0.08,WUHU216HW,2013-01-09 23:40:00,
2013-01-09 18:45:00,38.2,23.8,29.78,North,0,0.0,0.0,56,0.00,,,0.08,WUHU216HW,2013-01-09 23:45:00,
2013-01-09 18:50:00,37.8,22.1,29.78,North,0,0.0,0.0,53,0.00,,,0.08,WUHU216HW,2013-01-09 23:50:00,
2013-01-09 18:55:00,37.4,21.4,29.78,North,0,0.0,0.0,52,0.00,,,0.08,WUHU216HW,2013-01-09 23:55:00,
2013-01-09 19:00:00,37.4,20.5,29.78,North,0,0.0,0.0,50,0.00,,,0.08,WUHU216HW,2013-01-10 00:00:00,
2013-01-09 19:05:00,37.4,20.5,29.78,North,0,0.0,0.0,50,0.00,,,0.08,WUHU216HW,2013-01-10 00:05:00,
2013-01-09 19:10:00,37.4,14.7,29.78,North,0,0.0,0.0,39,0.00,,,0.08,WUHU216HW,2013-01-10 00:10:00,
2013-01-09 19:15:00,37.8,10.4,29.78,North,0,0.0,0.0,32,0.00,,,0.08,WUHU216HW,2013-01-10 00:15:00,
2013-01-09 19:21:00,37.8,16.1,29.78,North,0,0.0,0.0,41,0.00,,,0.08,WUHU216HW,2013-01-10 00:21:00,
2013-01-09 19:26:00,37.8,15.7,29.78,North,0,0.0,0.0,40,0.00,,,0.08,WUHU216HW,2013-01-10 00:26:00,
2013-01-09 19:31:00,37.6,17.6,29.79,North,0,0.0,0.0,44,0.00,,,0.08,WUHU216HW,2013-01-10 00:31:00,
2013-01-09 19:36:00,37.1,17.6,29.79,North,0,0.0,0.0,45,0.00,,,0.08,WUHU216HW,2013-01-10 00:36:00,
2013-01-09 19:41:00,36.7,17.3,29.79,North,0,0.0,0.0,45,0.00,,,0.08,WUHU216HW,2013-01-10 00:41:00,
2013-01-09 19:46:00,36.4,16.9,29.79,North,0,0.0,0.0,45,0.00,,,0.08,WUHU216HW,2013-01-10 00:46:00,
2013-01-09 19:51:00,36.2,16.3,29.79,North,0,0.0,0.0,44,0.00,,,0.08,WUHU216HW,2013-01-10 00:51:00,
2013-01-09 19:56:00,36.2,9.6,29.79,North,0,0.0,0.0,33,0.00,,,0.08,WUHU216HW,2013-01-10 00:56:00,
2013-01-09 20:01:00,36.0,11.4,29.79,North,0,0.0,0.0,36,0.00,,,0.08,WUHU216HW,2013-01-10 01:01:00,
2013-01-09 20:06:00,35.6,13.1,29.79,North,0,0.0,0.0,39,0.00,,,0.08,WUHU216HW,2013-01-10 01:06:00,
2013-01-09 20:11:00,35.8,13.2,29.80,North,0,0.0,0.0,39,0.00,,,0.08,WUHU216HW,2013-01-10 01:11:00,
2013-01-09 20:16:00,35.8,12.5,29.79,North,0,0.0,0.0,38,0.00,,,0.08,WUHU216HW,2013-01-10 01:16:00,
2013-01-09 20:21:00,35.6,13.1,29.79,North,0,0.0,0.0,39,0.00,,,0.08,WUHU216HW,2013-01-10 01:21:00,
2013-01-09 20:26:00,35.3,12.1,29.80,North,0,0.0,0.0,38,0.00,,,0.08,WUHU216HW,2013-01-10 01:26:00,
2013-01-09 20:32:00,35.1,10.6,29.80,North,0,0.0,0.0,36,0.00,,,0.08,WUHU216HW,2013-01-10 01:32:00,
2013-01-09 20:37:00,34.9,10.4,29.80,North,0,0.0,0.0,36,0.00,,,0.08,WUHU216HW,2013-01-10 01:37:00,
2013-01-09 20:42:00,34.9,9.8,29.80,North,0,0.0,0.0,35,0.00,,,0.08,WUHU216HW,2013-01-10 01:42:00,
2013-01-09 20:47:00,34.6,9.6,29.80,North,0,0.0,0.0,35,0.00,,,0.08,WUHU216HW,2013-01-10 01:47:00,
2013-01-09 20:52:00,34.4,6.9,29.80,North,0,0.0,0.0,31,0.00,,,0.08,WUHU216HW,2013-01-10 01:52:00,
2013-01-09 20:57:00,34.0,6.6,29.81,North,0,0.0,0.0,31,0.00,,,0.08,WUHU216HW,2013-01-10 01:57:00,
2013-01-09 21:02:00,33.8,6.4,29.80,North,0,0.0,0.0,31,0.00,,,0.08,WUHU216HW,2013-01-10 02:02:00,
2013-01-09 21:07:00,33.8,4.9,29.81,North,0,0.0,0.0,29,0.00,,,0.08,WUHU216HW,2013-01-10 02:07:00,
2013-01-09 21:12:00,33.7,3.9,29.81,North,0,0.0,0.0,28,0.00,,,0.08,WUHU216HW,2013-01-10 02:12:00,
2013-01-09 21:17:00,33.5,4.6,29.81,North,0,0.0,0.0,29,0.00,,,0.08,WUHU216HW,2013-01-10 02:17:00,
2013-01-09 21:22:00,33.1,1.6,29.81,North,0,0.0,0.0,26,0.00,,,0.08,WUHU216HW,2013-01-10 02:22:00,
2013-01-09 21:27:00,33.1,0.7,29.81,North,0,0.0,0.0,25,0.00,,,0.08,WUHU216HW,2013-01-10 02:27:00,
2013-01-09 21:32:00,33.1,-1.0,29.81,North,0,0.0,0.0,23,0.00,,,0.08,WUHU216HW,2013-01-10 02:32:00,
2013-01-09 21:37:00,32.8,-0.4,29.81,North,0,0.0,0.0,24,0.00,,,0.08,WUHU216HW,2013-01-10 02:37:00,
2013-01-09 21:42:00,32.4,-0.7,29.82,North,0,0.0,0.0,24,0.00,,,0.08,WUHU216HW,2013-01-10 02:42:00,
2013-01-09 21:47:00,32.2,-0.9,29.82,North,0,0.0,0.0,24,0.00,,,0.08,WUHU216HW,2013-01-10 02:47:00,
2013-01-09 21:53:00,32.2,-2.6,29.83,North,0,0.0,0.0,22,0.00,,,0.08,WUHU216HW,2013-01-10 02:53:00,
2013-01-09 21:58:00,32.2,-3.5,29.83,North,0,0.0,0.0,21,0.00,,,0.08,WUHU216HW,2013-01-10 02:58:00,
2013-01-09 22:03:00,31.9,-7.5,29.83,North,0,0.0,0.0,18,0.00,,,0.08,WUHU216HW,2013-01-10 03:03:00,
2013-01-09 22:08:00,31.9,-7.5,29.83,North,0,0.0,0.0,18,0.00,,,0.08,WUHU216HW,2013-01-10 03:08:00,
2013-01-09 22:13:00,31.9,-10.2,29.83,North,0,0.0,0.0,16,0.00,,,0.08,WUHU216HW,2013-01-10 03:13:00,
2013-01-09 22:18:00,31.5,-4.9,29.83,North,0,0.0,0.0,20,0.00,,,0.08,WUHU216HW,2013-01-10 03:18:00,
2013-01-09 22:23:00,31.1,-5.3,29.83,North,0,0.0,0.0,20,0.00,,,0.08,WUHU216HW,2013-01-10 03:23:00,
2013-01-09 22:28:00,31.0,-5.5,29.83,North,0,0.0,0.0,20,0.00,,,0.08,WUHU216HW,2013-01-10 03:28:00,
2013-01-09 22:33:00,31.0,-8.2,29.83,North,0,0.0,0.0,18,0.00,,,0.08,WUHU216HW,2013-01-10 03:33:00,
2013-01-09 22:39:00,31.0,-11.0,29.83,North,0,0.0,0.0,16,0.00,,,0.08,WUHU216HW,2013-01-10 03:39:00,
2013-01-09 22:44:00,31.0,-13.7,29.83,North,0,0.0,0.0,14,0.00,,,0.08,WUHU216HW,2013-01-10 03:44:00,
2013-01-09 22:49:00,31.3,-18.9,29.83,North,0,0.0,0.0,10,0.00,,,0.08,WUHU216HW,2013-01-10 03:49:00,
2013-01-09 22:54:00,31.0,-19.3,29.83,North,0,0.0,0.0,10,0.00,,,0.08,WUHU216HW,2013-01-10 03:54:00,
2013-01-09 22:59:00,30.8,-19.3,29.83,North,0,0.0,0.0,6,0.00,,,0.08,WUHU216HW,2013-01-10 03:59:00,
2013-01-09 23:04:00,31.0,-19.3,29.83,North,0,0.0,0.0,2,0.00,,,0.08,WUHU216HW,2013-01-10 04:04:00,
2013-01-09 23:09:00,31.0,-19.3,29.83,North,0,0.0,0.0,9,0.00,,,0.08,WUHU216HW,2013-01-10 04:09:00,
2013-01-09 23:14:00,30.2,-17.1,29.84,North,0,0.0,0.0,12,0.00,,,0.08,WUHU216HW,2013-01-10 04:14:00,
2013-01-09 23:19:00,30.1,-20.0,29.84,North,0,0.0,0.0,1,0.00,,,0.08,WUHU216HW,2013-01-10 04:19:00,
2013-01-09 23:24:00,30.1,-20.0,29.84,North,0,0.0,0.0,2,0.00,,,0.08,WUHU216HW,2013-01-10 04:24:00,
2013-01-09 23:30:00,29.7,-20.2,29.84,North,0,0.0,0.0,7,0.00,,,0.08,WUHU216HW,2013-01-10 04:30:00,
2013-01-09 23:35:00,29.5,-20.3,29.84,North,0,0.0,0.0,9,0.00,,,0.08,WUHU216HW,2013-01-10 04:35:00,
2013-01-09 23:40:00,29.5,-20.3,29.84,North,0,0.0,0.0,7,0.00,,,0.08,WUHU216HW,2013-01-10 04:40:00,
2013-01-09 23:45:00,29.3,-20.5,29.84,North,0,0.0,0.0,9,0.00,,,0.08,WUHU216HW,2013-01-10 04:45:00,
2013-01-09 23:50:00,29.2,-20.7,29.84,North,0,0.0,0.0,9,0.00,,,0.08,WUHU216HW,2013-01-10 04:50:00,
2013-01-09 23:55:00,29.3,-20.5,29.84,North,0,0.0,0.0,5,0.00,,,0.08,WUHU216HW,2013-01-10 04:55:00,